INTELSAT 33E DEB, 64407

Orbit data source: Space-Track

INTELSAT 33E DEB, 64407 is space debris in GEO originally from a launch on Wed, 24 Aug 2016 UTC launched from the French Guiana (FRGUI). Debris objects in space refer to the collection of defunct objects orbiting the Earth. Examples of debris include non-operational satellites, rocket bodies, and fragments generated from explosions, collisions, or faulty payload assembly.

Loading next visibility...
Identifier
64407, 2016-053AM
Orbit
GEO
Country
Flag of UnknownUnknown / ITSO
Related business
Manufacturer
Boeing/ES
Mission
Spacecraft
Bus & Motor
Unknown
Mass
Unknown
Launch date (UTC)
2016-08-24 (9 years ago)
Launch vehicle
Unknown
Launch site
French Guiana (FRGUI)
Object type
Payload
Rocket body
Debris
Shape & HBR
Unknown shape, 1.1 m
Radar Cross Section
RCS unknown

Expand to show TLE details & history
Last TLE update: 3 days ago

TLE from 3 days ago
0 INTELSAT 33E DEB
1 64407U 16053AM  25337.96294164 -.00000157  00000-0  00000-0 0  9991
2 64407   1.0111  58.9986 0269963 127.5166 233.3758  0.96100429  3785
Epoch: 2025-12-03T23:06Z
TLE epoch observation values (Epoch: 2025-12-03T23:06:38.157Z)
Latitude
-0°
Longitude
-2.23328°
Altitude
37,718.558 km
Speed
2.981 km/s
True Right ascension
03h 49m 48s
True Declination
0° 00' 00"
Sunlit
Object was in daylight at epoch
Visualization orbit readout
Latitude
Unknown
Longitude
Unknown
Altitude
Unknown
Speed
Unknown
Apparent Right ascension
Unknown
Apparent Declination
Unknown
Sunlit
N/A
Visualization observer readout
Local Sidereal Time
01:05:27
Azimuth
Unknown
Elevation
Unknown
Doppler factor
Unknown
Orbital elements
Apogee altitude
38,170.143 km
Perigee altitude
35,828.092 km
Semi-major axis
43,377.255 km
Eccentricity
0.027
Inclination
1.0111°
RAAN
58.9986°
Arg. of periapsis
127.5166°
True anomaly
230.94279°
Mean anomaly
233.3758°
Eccentric anomaly
232.15436°
Mean motion
0.24024 °/min
Orbital period
1,498.49 mins
BSTAR
0
Loading maneuver chart data...
Computing Atmospheric mass density...
Loading historical data...
Loading historical data...
Loading historical data...
Loading historical data...
Loading historical data...
Loading historical data...
Loading historical data...

Documentation

Showing up to 5 results
|